Year,Month,Day,Hour,Minute,Value (Times are PST for temperature in C)
2009,05,18,00,00,15.40
2009,05,18,00,01,15.50
2009,05,18,00,02,15.50
2009,05,18,00,03,15.50
2009,05,18,00,04,15.50
2009,05,18,00,05,15.50
2009,05,18,00,06,15.50
2009,05,18,00,07,15.50
2009,05,18,00,08,15.50
2009,05,18,00,09,15.50
2009,05,18,00,10,15.50
2009,05,18,00,11,15.40
2009,05,18,00,12,15.40
2009,05,18,00,13,15.40
2009,05,18,00,14,15.40
2009,05,18,00,15,15.30
2009,05,18,00,16,15.30
2009,05,18,00,17,15.30
2009,05,18,00,18,15.30
2009,05,18,00,19,15.30
2009,05,18,00,20,15.20
2009,05,18,00,21,15.20
2009,05,18,00,22,15.10
2009,05,18,00,23,15.00
2009,05,18,00,24,15.00
2009,05,18,00,25,14.90
2009,05,18,00,26,14.90
2009,05,18,00,27,14.80
2009,05,18,00,28,14.80
2009,05,18,00,29,14.80
2009,05,18,00,30,14.70
2009,05,18,00,31,14.70
2009,05,18,00,32,14.70
2009,05,18,00,33,14.60
2009,05,18,00,34,14.60
2009,05,18,00,35,14.60
2009,05,18,00,36,14.50
2009,05,18,00,37,14.50
2009,05,18,00,38,14.50
2009,05,18,00,39,14.40
2009,05,18,00,40,14.40
2009,05,18,00,41,14.40
2009,05,18,00,42,14.40
2009,05,18,00,43,14.40
2009,05,18,00,44,14.40
2009,05,18,00,45,14.30
2009,05,18,00,46,14.30
2009,05,18,00,47,14.30
2009,05,18,00,48,14.30
2009,05,18,00,49,14.30
2009,05,18,00,50,14.30
2009,05,18,00,51,14.30
2009,05,18,00,52,14.30
2009,05,18,00,53,14.20
2009,05,18,00,54,14.20
2009,05,18,00,55,14.20
2009,05,18,00,56,14.20
2009,05,18,00,57,14.10
2009,05,18,00,58,14.10
2009,05,18,00,59,14.10
2009,05,18,01,00,14.00
2009,05,18,01,01,14.00
2009,05,18,01,02,13.90
2009,05,18,01,03,13.90
2009,05,18,01,04,13.90
2009,05,18,01,05,13.90
2009,05,18,01,06,13.80
2009,05,18,01,07,13.80
2009,05,18,01,08,13.80
2009,05,18,01,09,13.80
2009,05,18,01,10,13.80
2009,05,18,01,11,13.80
2009,05,18,01,12,13.80
2009,05,18,01,13,13.80
2009,05,18,01,14,13.70
2009,05,18,01,15,13.70
2009,05,18,01,16,13.70
2009,05,18,01,17,13.70
2009,05,18,01,18,13.70
2009,05,18,01,19,13.70
2009,05,18,01,20,13.70
2009,05,18,01,21,13.70
2009,05,18,01,22,13.70
2009,05,18,01,23,13.70
2009,05,18,01,24,13.70
2009,05,18,01,25,13.70
2009,05,18,01,26,13.70
2009,05,18,01,27,13.70
2009,05,18,01,28,13.70
2009,05,18,01,29,13.70
2009,05,18,01,30,13.70
2009,05,18,01,31,13.70
2009,05,18,01,32,13.70
2009,05,18,01,33,13.70
2009,05,18,01,34,13.70
2009,05,18,01,35,13.70
2009,05,18,01,36,13.70
2009,05,18,01,37,13.70
2009,05,18,01,38,13.70
2009,05,18,01,39,13.70
2009,05,18,01,40,13.70
2009,05,18,01,41,13.70
2009,05,18,01,42,13.70
2009,05,18,01,43,13.70
2009,05,18,01,44,13.70
2009,05,18,01,45,13.70
2009,05,18,01,46,13.70
2009,05,18,01,47,13.70
2009,05,18,01,48,13.70
2009,05,18,01,49,13.60
2009,05,18,01,50,13.60
2009,05,18,01,51,13.60
2009,05,18,01,52,13.50
2009,05,18,01,53,13.50
2009,05,18,01,54,13.50
2009,05,18,01,55,13.50
2009,05,18,01,56,13.40
2009,05,18,01,57,13.40
2009,05,18,01,58,13.40
2009,05,18,01,59,13.30
2009,05,18,02,00,13.30
2009,05,18,02,01,13.30
2009,05,18,02,02,13.30
2009,05,18,02,03,13.30
2009,05,18,02,04,13.30
2009,05,18,02,05,13.20
2009,05,18,02,06,13.20
2009,05,18,02,07,13.20
2009,05,18,02,08,13.10
2009,05,18,02,09,13.10
2009,05,18,02,10,13.10
2009,05,18,02,11,13.10
2009,05,18,02,12,13.10
2009,05,18,02,13,13.00
2009,05,18,02,14,13.00
2009,05,18,02,15,13.00
2009,05,18,02,16,13.00
2009,05,18,02,17,13.00
2009,05,18,02,18,13.00
2009,05,18,02,19,12.90
2009,05,18,02,20,12.90
2009,05,18,02,21,12.90
2009,05,18,02,22,12.90
2009,05,18,02,23,12.90
2009,05,18,02,24,12.90
2009,05,18,02,25,12.90
2009,05,18,02,26,12.90
2009,05,18,02,27,12.80
2009,05,18,02,28,12.80
2009,05,18,02,29,12.80
2009,05,18,02,30,12.80
2009,05,18,02,31,12.80
2009,05,18,02,32,12.80
2009,05,18,02,33,12.80
2009,05,18,02,34,12.80
2009,05,18,02,35,12.80
2009,05,18,02,36,12.70
2009,05,18,02,37,12.70
2009,05,18,02,38,12.70
2009,05,18,02,39,12.70
2009,05,18,02,40,12.60
2009,05,18,02,41,12.60
2009,05,18,02,42,12.60
2009,05,18,02,43,12.50
2009,05,18,02,44,12.50
2009,05,18,02,45,12.50
2009,05,18,02,46,12.50
2009,05,18,02,47,12.40
2009,05,18,02,48,12.40
2009,05,18,02,49,12.40
2009,05,18,02,50,12.30
2009,05,18,02,51,12.30
2009,05,18,02,52,12.30
2009,05,18,02,53,12.30
2009,05,18,02,54,12.30
2009,05,18,02,55,12.30
2009,05,18,02,56,12.20
2009,05,18,02,57,12.20
2009,05,18,02,58,12.20
2009,05,18,02,59,12.20
2009,05,18,03,00,12.20
2009,05,18,03,01,12.20
2009,05,18,03,02,12.10
2009,05,18,03,03,12.10
2009,05,18,03,04,12.10
2009,05,18,03,05,12.10
2009,05,18,03,06,12.10
2009,05,18,03,07,12.00
2009,05,18,03,08,12.00
2009,05,18,03,09,12.00
2009,05,18,03,10,12.00
2009,05,18,03,11,12.00
2009,05,18,03,12,12.00
2009,05,18,03,13,12.00
2009,05,18,03,14,12.00
2009,05,18,03,15,12.00
2009,05,18,03,16,12.00
2009,05,18,03,17,12.00
2009,05,18,03,18,12.00
2009,05,18,03,19,12.00
2009,05,18,03,20,12.00
2009,05,18,03,21,12.00
2009,05,18,03,22,12.00
2009,05,18,03,23,12.00
2009,05,18,03,24,12.00
2009,05,18,03,25,12.00
2009,05,18,03,26,12.00
2009,05,18,03,27,12.00
2009,05,18,03,28,12.00
2009,05,18,03,29,12.00
2009,05,18,03,30,12.00
2009,05,18,03,31,12.00
2009,05,18,03,32,12.00
2009,05,18,03,33,12.00
2009,05,18,03,34,12.00
2009,05,18,03,35,12.00
2009,05,18,03,36,12.00
2009,05,18,03,37,12.00
2009,05,18,03,38,12.00
2009,05,18,03,39,12.00
2009,05,18,03,40,12.00
2009,05,18,03,41,12.00
2009,05,18,03,42,12.00
2009,05,18,03,43,12.00
2009,05,18,03,44,12.00
2009,05,18,03,45,12.00
2009,05,18,03,46,12.00
2009,05,18,03,47,12.00
2009,05,18,03,48,12.00
2009,05,18,03,49,12.00
2009,05,18,03,50,12.00
2009,05,18,03,51,12.00
2009,05,18,03,52,12.00
2009,05,18,03,53,12.10
2009,05,18,03,54,12.10
2009,05,18,03,55,12.10
2009,05,18,03,56,12.10
2009,05,18,03,57,12.10
2009,05,18,03,58,12.10
2009,05,18,03,59,12.10
2009,05,18,04,00,12.10
2009,05,18,04,01,12.00
2009,05,18,04,02,12.00
2009,05,18,04,03,12.00
2009,05,18,04,04,12.00
2009,05,18,04,05,12.00
2009,05,18,04,06,12.00
2009,05,18,04,07,12.00
2009,05,18,04,08,12.00
2009,05,18,04,09,12.00
2009,05,18,04,10,11.90
2009,05,18,04,11,11.90
2009,05,18,04,12,11.90
2009,05,18,04,13,11.90
2009,05,18,04,14,11.90
2009,05,18,04,15,11.90
2009,05,18,04,16,11.90
2009,05,18,04,17,11.90
2009,05,18,04,18,11.80
2009,05,18,04,19,11.80
2009,05,18,04,20,11.80
2009,05,18,04,21,11.80
2009,05,18,04,22,11.80
2009,05,18,04,23,11.80
2009,05,18,04,24,11.80
2009,05,18,04,25,11.80
2009,05,18,04,26,11.80
2009,05,18,04,27,11.80
2009,05,18,04,28,11.80
2009,05,18,04,29,11.80
2009,05,18,04,30,11.80
2009,05,18,04,31,11.80
2009,05,18,04,32,11.80
2009,05,18,04,33,11.80
2009,05,18,04,34,11.80
2009,05,18,04,35,11.80
2009,05,18,04,36,11.80
2009,05,18,04,37,11.80
2009,05,18,04,38,11.80
2009,05,18,04,39,11.80
2009,05,18,04,40,11.80
2009,05,18,04,41,11.80
2009,05,18,04,42,11.70
2009,05,18,04,43,11.70
2009,05,18,04,44,11.70
2009,05,18,04,45,11.70
2009,05,18,04,46,11.70
2009,05,18,04,47,11.70
2009,05,18,04,48,11.70
2009,05,18,04,49,11.70
2009,05,18,04,50,11.70
2009,05,18,04,51,11.70
2009,05,18,04,52,11.70
2009,05,18,04,53,11.70
2009,05,18,04,54,11.70
2009,05,18,04,55,11.70
2009,05,18,04,56,11.70
2009,05,18,04,57,11.70
2009,05,18,04,58,11.70
2009,05,18,04,59,11.70
2009,05,18,05,00,11.60
2009,05,18,05,01,11.60
2009,05,18,05,02,11.60
2009,05,18,05,03,11.60
2009,05,18,05,04,11.60
2009,05,18,05,05,11.60
2009,05,18,05,06,11.60
2009,05,18,05,07,11.60
2009,05,18,05,08,11.60
2009,05,18,05,09,11.60
2009,05,18,05,10,11.60
2009,05,18,05,11,11.60
2009,05,18,05,12,11.60
2009,05,18,05,13,11.60
2009,05,18,05,14,11.60
2009,05,18,05,15,11.60
2009,05,18,05,16,11.60
2009,05,18,05,17,11.60
2009,05,18,05,18,11.60
2009,05,18,05,19,11.60
2009,05,18,05,20,11.60
2009,05,18,05,21,11.60
2009,05,18,05,22,11.60
2009,05,18,05,23,11.60
2009,05,18,05,24,11.60
2009,05,18,05,25,11.60
2009,05,18,05,26,11.60
2009,05,18,05,27,11.60
2009,05,18,05,28,11.60
2009,05,18,05,29,11.60
2009,05,18,05,30,11.60
2009,05,18,05,31,11.60
2009,05,18,05,32,11.60
2009,05,18,05,33,11.60
2009,05,18,05,34,11.60
2009,05,18,05,35,11.60
2009,05,18,05,36,11.60
2009,05,18,05,37,11.60
2009,05,18,05,38,11.60
2009,05,18,05,39,11.60
2009,05,18,05,40,11.60
2009,05,18,05,41,11.60
2009,05,18,05,42,11.70
2009,05,18,05,43,11.70
2009,05,18,05,44,11.70
2009,05,18,05,45,11.70
2009,05,18,05,46,11.70
2009,05,18,05,47,11.70
2009,05,18,05,48,11.70
2009,05,18,05,49,11.70
2009,05,18,05,50,11.70
2009,05,18,05,51,11.70
2009,05,18,05,52,11.70
2009,05,18,05,53,11.80
2009,05,18,05,54,11.80
2009,05,18,05,55,11.80
2009,05,18,05,56,11.80
2009,05,18,05,57,11.80
2009,05,18,05,58,11.80
2009,05,18,05,59,11.80
2009,05,18,06,00,11.80
2009,05,18,06,01,11.80
2009,05,18,06,02,11.80
2009,05,18,06,03,11.80
2009,05,18,06,04,11.80
2009,05,18,06,05,11.80
2009,05,18,06,06,11.80
2009,05,18,06,07,11.80
2009,05,18,06,08,11.80
2009,05,18,06,09,11.80
2009,05,18,06,10,11.90
2009,05,18,06,11,11.90
2009,05,18,06,12,11.90
2009,05,18,06,13,12.00
2009,05,18,06,14,12.00
2009,05,18,06,15,12.00
2009,05,18,06,16,12.00
2009,05,18,06,17,12.00
2009,05,18,06,18,12.00
2009,05,18,06,19,12.00
2009,05,18,06,20,12.00
2009,05,18,06,21,11.90
2009,05,18,06,22,11.90
2009,05,18,06,23,11.90
2009,05,18,06,24,11.90
2009,05,18,06,25,11.90
2009,05,18,06,26,11.90
2009,05,18,06,27,11.90
2009,05,18,06,28,11.90
2009,05,18,06,29,11.90
2009,05,18,06,30,11.90
2009,05,18,06,31,11.90
2009,05,18,06,32,11.90
2009,05,18,06,33,11.90
2009,05,18,06,34,11.90
2009,05,18,06,35,11.90
2009,05,18,06,36,11.80
2009,05,18,06,37,11.80
2009,05,18,06,38,11.80
2009,05,18,06,39,11.80
2009,05,18,06,40,11.70
2009,05,18,06,41,11.60
2009,05,18,06,42,11.60
2009,05,18,06,43,11.60
2009,05,18,06,44,11.40
2009,05,18,06,45,11.40
2009,05,18,06,46,11.40
2009,05,18,06,47,11.40
2009,05,18,06,48,11.40
2009,05,18,06,49,11.40
2009,05,18,06,50,11.40
2009,05,18,06,51,11.40
2009,05,18,06,52,11.30
2009,05,18,06,53,11.30
2009,05,18,06,54,11.20
2009,05,18,06,55,11.20
2009,05,18,06,56,11.10
2009,05,18,06,57,11.10
2009,05,18,06,58,11.10
2009,05,18,06,59,11.10
2009,05,18,07,00,11.10
2009,05,18,07,01,11.10
2009,05,18,07,02,11.10
2009,05,18,07,03,11.20
2009,05,18,07,04,11.20
2009,05,18,07,05,11.20
2009,05,18,07,06,11.20
2009,05,18,07,07,11.30
2009,05,18,07,08,11.30
2009,05,18,07,09,11.40
2009,05,18,07,10,11.40
2009,05,18,07,11,11.40
2009,05,18,07,12,11.40
2009,05,18,07,13,11.40
2009,05,18,07,14,11.50
2009,05,18,07,15,11.60
2009,05,18,07,16,11.60
2009,05,18,07,17,11.60
2009,05,18,07,18,11.60
2009,05,18,07,19,11.60
2009,05,18,07,20,11.60
2009,05,18,07,21,11.60
2009,05,18,07,22,11.70
2009,05,18,07,23,11.70
2009,05,18,07,24,11.70
2009,05,18,07,25,11.70
2009,05,18,07,26,11.70
2009,05,18,07,27,11.70
2009,05,18,07,28,11.70
2009,05,18,07,29,11.70
2009,05,18,07,30,11.70
2009,05,18,07,31,11.60
2009,05,18,07,32,11.70
2009,05,18,07,33,11.70
2009,05,18,07,34,11.60
2009,05,18,07,35,11.70
2009,05,18,07,36,11.70
2009,05,18,07,37,11.70
2009,05,18,07,38,11.70
2009,05,18,07,39,11.60
2009,05,18,07,40,11.60
2009,05,18,07,41,11.60
2009,05,18,07,42,11.60
2009,05,18,07,43,11.50
2009,05,18,07,44,11.40
2009,05,18,07,45,11.40
2009,05,18,07,46,11.40
2009,05,18,07,47,11.40
2009,05,18,07,48,11.40
2009,05,18,07,49,11.30
2009,05,18,07,50,11.30
2009,05,18,07,51,11.20
2009,05,18,07,52,11.20
2009,05,18,07,53,11.20
2009,05,18,07,54,11.20
2009,05,18,07,55,11.20
2009,05,18,07,56,11.20
2009,05,18,07,57,11.30
2009,05,18,07,58,11.30
2009,05,18,07,59,11.30
2009,05,18,08,00,11.40
2009,05,18,08,01,11.40
2009,05,18,08,02,11.40
2009,05,18,08,03,11.40
2009,05,18,08,04,11.40
2009,05,18,08,05,11.40
2009,05,18,08,06,11.40
2009,05,18,08,07,11.40
2009,05,18,08,08,11.40
2009,05,18,08,09,11.40
2009,05,18,08,10,11.40
2009,05,18,08,11,11.40
2009,05,18,08,12,11.40
2009,05,18,08,13,11.50
2009,05,18,08,14,11.60
2009,05,18,08,15,11.60
2009,05,18,08,16,11.60
2009,05,18,08,17,11.60
2009,05,18,08,18,11.60
2009,05,18,08,19,11.60
2009,05,18,08,20,11.60
2009,05,18,08,21,11.70
2009,05,18,08,22,11.70
2009,05,18,08,23,11.70
2009,05,18,08,24,11.80
2009,05,18,08,25,11.80
2009,05,18,08,26,11.80
2009,05,18,08,27,11.80
2009,05,18,08,28,11.90
2009,05,18,08,29,11.80
2009,05,18,08,30,11.80
2009,05,18,08,31,11.80
2009,05,18,08,32,11.70
2009,05,18,08,33,11.60
2009,05,18,08,34,11.60
2009,05,18,08,35,11.60
2009,05,18,08,36,11.60
2009,05,18,08,37,11.60
2009,05,18,08,38,11.60
2009,05,18,08,39,11.60
2009,05,18,08,40,11.60
2009,05,18,08,41,11.60
2009,05,18,08,42,11.60
2009,05,18,08,43,11.70
2009,05,18,08,44,11.70
2009,05,18,08,45,11.80
2009,05,18,08,46,11.80
2009,05,18,08,47,11.80
2009,05,18,08,48,11.90
2009,05,18,08,49,11.90
2009,05,18,08,50,12.00
2009,05,18,08,51,12.00
2009,05,18,08,52,12.00
2009,05,18,08,53,12.10
2009,05,18,08,54,12.10
2009,05,18,08,55,12.10
2009,05,18,08,56,12.00
2009,05,18,08,57,12.00
2009,05,18,08,58,12.00
2009,05,18,08,59,12.00
2009,05,18,09,00,12.00
2009,05,18,09,01,12.00
2009,05,18,09,02,12.10
2009,05,18,09,03,12.10
2009,05,18,09,04,12.20
2009,05,18,09,05,12.20
2009,05,18,09,06,12.30
2009,05,18,09,07,12.30
2009,05,18,09,08,12.30
2009,05,18,09,09,12.20
2009,05,18,09,10,12.10
2009,05,18,09,11,12.10
2009,05,18,09,12,12.00
2009,05,18,09,13,12.00
2009,05,18,09,14,11.90
2009,05,18,09,15,11.90
2009,05,18,09,16,11.90
2009,05,18,09,17,11.80
2009,05,18,09,18,11.80
2009,05,18,09,19,11.80
2009,05,18,09,20,11.70
2009,05,18,09,21,11.70
2009,05,18,09,22,11.70
2009,05,18,09,23,11.70
2009,05,18,09,24,11.70
2009,05,18,09,25,11.80
2009,05,18,09,26,11.80
2009,05,18,09,27,11.70
2009,05,18,09,28,11.70
2009,05,18,09,29,11.70
2009,05,18,09,30,11.80
2009,05,18,09,31,11.80
2009,05,18,09,32,11.80
2009,05,18,09,33,11.90
2009,05,18,09,34,11.90
2009,05,18,09,35,12.00
2009,05,18,09,36,12.00
2009,05,18,09,37,12.10
2009,05,18,09,38,12.10
2009,05,18,09,39,12.10
2009,05,18,09,40,12.20
2009,05,18,09,41,12.20
2009,05,18,09,42,12.10
2009,05,18,09,43,12.10
2009,05,18,09,44,12.00
2009,05,18,09,45,11.90
2009,05,18,09,46,11.80
2009,05,18,09,47,11.80
2009,05,18,09,48,11.70
2009,05,18,09,49,11.80
2009,05,18,09,50,11.80
2009,05,18,09,51,11.70
2009,05,18,09,52,11.70
2009,05,18,09,53,11.70
2009,05,18,09,54,11.70
2009,05,18,09,55,11.80
2009,05,18,09,56,11.80
2009,05,18,09,57,11.90
2009,05,18,09,58,12.00
2009,05,18,09,59,12.00
2009,05,18,10,00,12.10
2009,05,18,10,01,12.20
2009,05,18,10,02,12.30
2009,05,18,10,03,12.30
2009,05,18,10,04,12.40
2009,05,18,10,05,12.50
2009,05,18,10,06,12.60
2009,05,18,10,07,12.60
2009,05,18,10,08,12.70
2009,05,18,10,09,12.70
2009,05,18,10,10,12.80
2009,05,18,10,11,12.80
2009,05,18,10,12,12.80
2009,05,18,10,13,12.80
2009,05,18,10,14,12.70
2009,05,18,10,15,12.50
2009,05,18,10,16,12.30
2009,05,18,10,17,12.30
2009,05,18,10,18,12.20
2009,05,18,10,19,12.10
2009,05,18,10,20,12.00
2009,05,18,10,21,11.90
2009,05,18,10,22,11.80
2009,05,18,10,23,11.80
2009,05,18,10,24,11.80
2009,05,18,10,25,11.70
2009,05,18,10,26,11.70
2009,05,18,10,27,11.60
2009,05,18,10,28,11.60
2009,05,18,10,29,11.60
2009,05,18,10,30,11.40
2009,05,18,10,31,11.40
2009,05,18,10,32,11.60
2009,05,18,10,33,11.60
2009,05,18,10,34,11.60
2009,05,18,10,35,11.60
2009,05,18,10,36,11.60
2009,05,18,10,37,11.60
2009,05,18,10,38,11.70
2009,05,18,10,39,11.70
2009,05,18,10,40,11.80
2009,05,18,10,41,11.80
2009,05,18,10,42,11.80
2009,05,18,10,43,11.90
2009,05,18,10,44,11.90
2009,05,18,10,45,11.90
2009,05,18,10,46,11.90
2009,05,18,10,47,12.00
2009,05,18,10,48,12.10
2009,05,18,10,49,12.00
2009,05,18,10,50,12.00
2009,05,18,10,51,11.90
2009,05,18,10,52,11.80
2009,05,18,10,53,11.80
2009,05,18,10,54,11.80
2009,05,18,10,55,11.70
2009,05,18,10,56,11.70
2009,05,18,10,57,11.70
2009,05,18,10,58,11.70
2009,05,18,10,59,11.80
2009,05,18,11,00,11.80
2009,05,18,11,01,11.80
2009,05,18,11,02,11.80
2009,05,18,11,03,11.80
2009,05,18,11,04,11.80
2009,05,18,11,05,11.80
2009,05,18,11,06,11.80
2009,05,18,11,07,11.70
2009,05,18,11,08,11.70
2009,05,18,11,09,11.80
2009,05,18,11,10,11.80
2009,05,18,11,11,11.80
2009,05,18,11,12,11.80
2009,05,18,11,13,11.80
2009,05,18,11,14,11.80
2009,05,18,11,15,11.80
2009,05,18,11,16,11.90
2009,05,18,11,17,11.90
2009,05,18,11,18,11.90
2009,05,18,11,19,11.90
2009,05,18,11,20,11.90
2009,05,18,11,21,11.90
2009,05,18,11,22,11.90
2009,05,18,11,23,11.90
2009,05,18,11,24,11.90
2009,05,18,11,25,11.80
2009,05,18,11,26,11.90
2009,05,18,11,27,11.90
2009,05,18,11,28,12.00
2009,05,18,11,29,11.90
2009,05,18,11,30,11.90
2009,05,18,11,31,11.90
2009,05,18,11,32,12.00
2009,05,18,11,33,11.90
2009,05,18,11,34,12.00
2009,05,18,11,35,12.00
2009,05,18,11,36,12.00
2009,05,18,11,37,12.10
2009,05,18,11,38,12.10
2009,05,18,11,39,12.10
2009,05,18,11,40,12.10
2009,05,18,11,41,12.10
2009,05,18,11,42,12.20
2009,05,18,11,43,12.10
2009,05,18,11,44,12.00
2009,05,18,11,45,11.90
2009,05,18,11,46,11.90
2009,05,18,11,47,11.90
2009,05,18,11,48,12.00
2009,05,18,11,49,12.00
2009,05,18,11,50,12.00
2009,05,18,11,51,12.00
2009,05,18,11,52,12.00
2009,05,18,11,53,12.00
2009,05,18,11,54,12.00
2009,05,18,11,55,11.90
2009,05,18,11,56,11.90
2009,05,18,11,57,12.00
2009,05,18,11,58,12.00
2009,05,18,11,59,12.00
2009,05,18,12,00,12.00
2009,05,18,12,01,12.10
2009,05,18,12,02,12.10
2009,05,18,12,03,12.10
2009,05,18,12,04,12.10
2009,05,18,12,05,12.10
2009,05,18,12,06,12.20
2009,05,18,12,07,12.20
2009,05,18,12,08,12.20
2009,05,18,12,09,12.10
2009,05,18,12,10,12.10
2009,05,18,12,11,12.00
2009,05,18,12,12,12.00
2009,05,18,12,13,11.90
2009,05,18,12,14,11.80
2009,05,18,12,15,11.80
2009,05,18,12,16,11.70
2009,05,18,12,17,11.60
2009,05,18,12,18,11.60
2009,05,18,12,19,11.60
2009,05,18,12,20,11.60
2009,05,18,12,21,11.60
2009,05,18,12,22,11.60
2009,05,18,12,23,11.60
2009,05,18,12,24,11.60
2009,05,18,12,25,11.60
2009,05,18,12,26,11.60
2009,05,18,12,27,11.60
2009,05,18,12,28,11.60
2009,05,18,12,29,11.60
2009,05,18,12,30,11.70
2009,05,18,12,31,11.70
2009,05,18,12,32,11.80
2009,05,18,12,33,11.80
2009,05,18,12,34,11.80
2009,05,18,12,35,11.90
2009,05,18,12,36,12.00
2009,05,18,12,37,12.00
2009,05,18,12,38,12.00
2009,05,18,12,39,11.90
2009,05,18,12,40,11.80
2009,05,18,12,41,11.80
2009,05,18,12,42,11.80
2009,05,18,12,43,11.80
2009,05,18,12,44,11.80
2009,05,18,12,45,11.80
2009,05,18,12,46,11.80
2009,05,18,12,47,11.90
2009,05,18,12,48,12.00
2009,05,18,12,49,12.00
2009,05,18,12,50,12.10
2009,05,18,12,51,12.20
2009,05,18,12,52,12.20
2009,05,18,12,53,12.30
2009,05,18,12,54,12.30
2009,05,18,12,55,12.30
2009,05,18,12,56,12.40
2009,05,18,12,57,12.50
2009,05,18,12,58,12.50
2009,05,18,12,59,12.60
2009,05,18,13,00,12.60
2009,05,18,13,01,12.70
2009,05,18,13,02,12.70
2009,05,18,13,03,12.80
2009,05,18,13,04,12.80
2009,05,18,13,05,12.80
2009,05,18,13,06,12.80
2009,05,18,13,07,12.80
2009,05,18,13,08,12.80
2009,05,18,13,09,12.80
2009,05,18,13,10,12.80
2009,05,18,13,11,12.80
2009,05,18,13,12,12.80
2009,05,18,13,13,12.90
2009,05,18,13,14,13.00
2009,05,18,13,15,13.00
2009,05,18,13,16,13.10
2009,05,18,13,17,13.10
2009,05,18,13,18,13.20
2009,05,18,13,19,13.30
2009,05,18,13,20,13.30
2009,05,18,13,21,13.30
2009,05,18,13,22,13.40
2009,05,18,13,23,13.40
2009,05,18,13,24,13.40
2009,05,18,13,25,13.50
2009,05,18,13,26,13.60
2009,05,18,13,27,13.60
2009,05,18,13,28,13.70
2009,05,18,13,29,13.70
2009,05,18,13,30,13.70
2009,05,18,13,31,13.70
2009,05,18,13,32,13.70
2009,05,18,13,33,13.70
2009,05,18,13,34,13.80
2009,05,18,13,35,13.80
2009,05,18,13,36,13.80
2009,05,18,13,37,13.90
2009,05,18,13,38,13.90
2009,05,18,13,39,13.90
2009,05,18,13,40,13.90
2009,05,18,13,41,13.80
2009,05,18,13,42,13.70
2009,05,18,13,43,13.50
2009,05,18,13,44,13.30
2009,05,18,13,45,13.10
2009,05,18,13,46,12.90
2009,05,18,13,47,12.80
2009,05,18,13,48,12.70
2009,05,18,13,49,12.60
2009,05,18,13,50,12.50
2009,05,18,13,51,12.30
2009,05,18,13,52,12.10
2009,05,18,13,53,11.80
2009,05,18,13,54,11.70
2009,05,18,13,55,11.70
2009,05,18,13,56,11.70
2009,05,18,13,57,11.60
2009,05,18,13,58,11.60
2009,05,18,13,59,11.60
2009,05,18,14,00,11.70
2009,05,18,14,01,11.70
2009,05,18,14,02,11.60
2009,05,18,14,03,11.60
2009,05,18,14,04,11.60
2009,05,18,14,05,11.60
2009,05,18,14,06,11.60
2009,05,18,14,07,11.70
2009,05,18,14,08,11.70
2009,05,18,14,09,11.80
2009,05,18,14,10,11.80
2009,05,18,14,11,11.80
2009,05,18,14,12,11.80
2009,05,18,14,13,11.90
2009,05,18,14,14,11.90
2009,05,18,14,15,12.00
2009,05,18,14,16,12.00
2009,05,18,14,17,12.00
2009,05,18,14,18,12.20
2009,05,18,14,19,12.20
2009,05,18,14,20,12.10
2009,05,18,14,21,12.00
2009,05,18,14,22,11.80
2009,05,18,14,23,11.80
2009,05,18,14,24,11.80
2009,05,18,14,25,11.80
2009,05,18,14,26,11.90
2009,05,18,14,27,11.90
2009,05,18,14,28,12.00
2009,05,18,14,29,12.00
2009,05,18,14,30,12.10
2009,05,18,14,31,12.10
2009,05,18,14,32,12.10
2009,05,18,14,33,12.10
2009,05,18,14,34,12.10
2009,05,18,14,35,12.00
2009,05,18,14,36,11.90
2009,05,18,14,37,11.80
2009,05,18,14,38,11.70
2009,05,18,14,39,11.70
2009,05,18,14,40,11.80
2009,05,18,14,41,11.80
2009,05,18,14,42,11.80
2009,05,18,14,43,11.70
2009,05,18,14,44,11.60
2009,05,18,14,45,11.40
2009,05,18,14,46,11.30
2009,05,18,14,47,11.10
2009,05,18,14,48,10.90
2009,05,18,14,49,10.90
2009,05,18,14,50,10.90
2009,05,18,14,51,10.80
2009,05,18,14,52,10.80
2009,05,18,14,53,10.80
2009,05,18,14,54,10.80
2009,05,18,14,55,10.80
2009,05,18,14,56,10.90
2009,05,18,14,57,10.80
2009,05,18,14,58,10.80
2009,05,18,14,59,10.80
2009,05,18,15,00,10.80
2009,05,18,15,01,10.80
2009,05,18,15,02,10.70
2009,05,18,15,03,10.70
2009,05,18,15,04,10.80
2009,05,18,15,05,10.80
2009,05,18,15,06,10.80
2009,05,18,15,07,10.80
2009,05,18,15,08,10.80
2009,05,18,15,09,10.70
2009,05,18,15,10,10.60
2009,05,18,15,11,10.60
2009,05,18,15,12,10.60
2009,05,18,15,13,10.60
2009,05,18,15,14,10.40
2009,05,18,15,15,10.40
2009,05,18,15,16,10.40
2009,05,18,15,17,10.50
2009,05,18,15,18,10.60
2009,05,18,15,19,10.60
2009,05,18,15,20,10.60
2009,05,18,15,21,10.60
2009,05,18,15,22,10.70
2009,05,18,15,23,10.70
2009,05,18,15,24,10.70
2009,05,18,15,25,10.70
2009,05,18,15,26,10.70
2009,05,18,15,27,10.80
2009,05,18,15,28,10.80
2009,05,18,15,29,10.80
2009,05,18,15,30,10.80
2009,05,18,15,31,10.90
2009,05,18,15,32,10.90
2009,05,18,15,33,10.90
2009,05,18,15,34,10.90
2009,05,18,15,35,10.90
2009,05,18,15,36,10.90
2009,05,18,15,37,10.90
2009,05,18,15,38,10.90
2009,05,18,15,39,10.90
2009,05,18,15,40,10.90
2009,05,18,15,41,10.90
2009,05,18,15,42,11.00
2009,05,18,15,43,11.10
2009,05,18,15,44,11.10
2009,05,18,15,45,11.10
2009,05,18,15,46,11.20
2009,05,18,15,47,11.20
2009,05,18,15,48,11.30
2009,05,18,15,49,11.30
2009,05,18,15,50,11.30
2009,05,18,15,51,11.30
2009,05,18,15,52,11.40
2009,05,18,15,53,11.40
2009,05,18,15,54,11.40
2009,05,18,15,55,11.40
2009,05,18,15,56,11.60
2009,05,18,15,57,11.60
2009,05,18,15,58,11.60
2009,05,18,15,59,11.60
2009,05,18,16,00,11.70
2009,05,18,16,01,11.70
2009,05,18,16,02,11.70
2009,05,18,16,03,11.70
2009,05,18,16,04,11.60
2009,05,18,16,05,11.60
2009,05,18,16,06,11.60
2009,05,18,16,07,11.60
2009,05,18,16,08,11.60
2009,05,18,16,09,11.60
2009,05,18,16,10,11.60
2009,05,18,16,11,11.60
2009,05,18,16,12,11.60
2009,05,18,16,13,11.60
2009,05,18,16,14,11.60
2009,05,18,16,15,11.60
2009,05,18,16,16,11.60
2009,05,18,16,17,11.60
2009,05,18,16,18,11.60
2009,05,18,16,19,11.60
2009,05,18,16,20,11.60
2009,05,18,16,21,11.60
2009,05,18,16,22,11.60
2009,05,18,16,23,11.70
2009,05,18,16,24,11.70
2009,05,18,16,25,11.70
2009,05,18,16,26,11.70
2009,05,18,16,27,11.70
2009,05,18,16,28,11.70
2009,05,18,16,29,11.70
2009,05,18,16,30,11.80
2009,05,18,16,31,11.80
2009,05,18,16,32,11.80
2009,05,18,16,33,11.80
2009,05,18,16,34,11.80
2009,05,18,16,35,11.80
2009,05,18,16,36,11.80
2009,05,18,16,37,11.80
2009,05,18,16,38,11.80
2009,05,18,16,39,11.80
2009,05,18,16,40,11.80
2009,05,18,16,41,11.80
2009,05,18,16,42,11.80
2009,05,18,16,43,11.80
2009,05,18,16,44,11.80
2009,05,18,16,45,11.80
2009,05,18,16,46,11.80
2009,05,18,16,47,11.80
2009,05,18,16,48,11.80
2009,05,18,16,49,11.80
2009,05,18,16,50,11.80
2009,05,18,16,51,11.80
2009,05,18,16,52,11.80
2009,05,18,16,53,11.80
2009,05,18,16,54,11.80
2009,05,18,16,55,11.70
2009,05,18,16,56,11.70
2009,05,18,16,57,11.70
2009,05,18,16,58,11.70
2009,05,18,16,59,11.70
2009,05,18,17,00,11.70
2009,05,18,17,01,11.70
2009,05,18,17,02,11.70
2009,05,18,17,03,11.70
2009,05,18,17,04,11.70
2009,05,18,17,05,11.70
2009,05,18,17,06,11.60
2009,05,18,17,07,11.60
2009,05,18,17,08,11.60
2009,05,18,17,09,11.60
2009,05,18,17,10,11.60
2009,05,18,17,11,11.60
2009,05,18,17,12,11.60
2009,05,18,17,13,11.60
2009,05,18,17,14,11.60
2009,05,18,17,15,11.60
2009,05,18,17,16,11.60
2009,05,18,17,17,11.70
2009,05,18,17,18,11.70
2009,05,18,17,19,11.70